Gwinn, MI

1:18 PM EDT on August 19, 2017 (GMT -0400)
Sawyer International

Weather History for KSAW - December, 2011

Change the Weather History Date:

Saturday, December 31, 2011

  Actual Average (KESC) Record (KESC)
Temperature  
Mean Temperature 24 °F -  
Max Temperature 33 °F 26 °F 49 °F (1965)
Min Temperature 15 °F 12 °F -15 °F (1967)
Degree Days  
Heating Degree Days 41    
Moisture  
Dew Point 24 °F    
Average Humidity 87    
Maximum Humidity 94    
Minimum Humidity 75    
Precipitation  
Precipitation 0.00 in - - ()
Sea Level Pressure  
Sea Level Pressure 29.79 in    
Wind  
Wind Speed 3 mph (South)    
Max Wind Speed 17 mph    
Max Gust Speed 23 mph    
Visibility 9 miles    
Events      
Averages and records for this station are not official NWS values.
T = Trace of Precipitation, MM = Missing Value Source: NWS Daily Summary

Daily Weather History Graph

Daily Weather History Graph

Search for Another Location

Airport or City:

Trip Planner

Search our weather history database for the weather conditions in past years. The results will help you decide how hot, cold, wet, or windy it might be!

Date:

Astronomy

Dec. 31, 2011 Rise Set
Actual Time 8:32 AM EST 5:12 PM EST
Civil Twilight 7:58 AM EST 5:47 PM EST
Nautical Twilight 7:19 AM EST 6:25 PM EST
Astronomical Twilight 6:43 AM EST 7:01 PM EST
Moon 11:51 AM EST (12/31) 12:11 AM EST (12/31)
Length of Visible Light 9h 49m
Length of Day
8h 39m
Waxing Crescent, 45% of the Moon is Illuminated
Dec 31
Waxing Crescent
Jan 1
First Quarter
Jan 9
Full
Jan 16
Last Quarter
Jan 23
New

Hourly Weather History & Observations

Time (EST) Temp. Windchill Dew Point Humidity Pressure Visibility Wind Dir Wind Speed Gust Speed Precip Events Conditions
12:17 AM 27.1 °F - 23.0 °F 84% 29.78 in 10.0 mi Calm Calm - N/A   Overcast
12:37 AM 26.6 °F - 23.0 °F 86% 29.77 in 10.0 mi Calm Calm - N/A   Overcast
12:57 AM 27.9 °F - 23.0 °F 82% 29.77 in 10.0 mi Calm Calm - N/A   Overcast
1:17 AM 26.6 °F - 23.0 °F 86% 29.78 in 10.0 mi Calm Calm - N/A   Overcast
1:37 AM 27.5 °F - 23.4 °F 84% 29.78 in 10.0 mi Calm Calm - N/A   Overcast
1:57 AM 27.5 °F - 23.7 °F 86% 29.78 in 10.0 mi Calm Calm - N/A   Overcast
2:17 AM 27.5 °F - 23.5 °F 85% 29.78 in 10.0 mi Calm Calm - N/A   Overcast
2:36 AM 27.3 °F - 23.5 °F 86% 29.80 in 10.0 mi Calm Calm - N/A   Overcast
2:57 AM 27.5 °F - 23.7 °F 86% 29.81 in 10.0 mi Calm Calm - N/A   Overcast
3:16 AM 28.4 °F - 23.0 °F 80% 29.81 in 10.0 mi Calm Calm - N/A   Overcast
3:37 AM 27.5 °F - 23.7 °F 86% 29.82 in 10.0 mi Calm Calm - N/A   Overcast
3:57 AM 28.4 °F - 23.0 °F 80% 29.83 in 10.0 mi Calm Calm - N/A   Overcast
4:16 AM 27.5 °F - 23.4 °F 84% 29.82 in 10.0 mi Calm Calm - N/A   Overcast
4:37 AM 27.5 °F - 23.0 °F 83% 29.83 in 10.0 mi Calm Calm - N/A   Overcast
4:57 AM 27.1 °F - 22.8 °F 84% 29.82 in 10.0 mi Calm Calm - N/A   Overcast
5:16 AM 26.8 °F - 22.3 °F 83% 29.82 in 10.0 mi Calm Calm - N/A   Overcast
5:37 AM 26.6 °F - 22.1 °F 83% 29.82 in 10.0 mi Calm Calm - N/A   Overcast
5:57 AM 26.1 °F - 21.9 °F 84% 29.83 in 10.0 mi Calm Calm - N/A   Overcast
6:50 AM 23.0 °F - 21.2 °F 93% 29.83 in 10.0 mi Calm Calm - N/A   Scattered Clouds
7:50 AM 21.2 °F - 19.4 °F 93% 29.84 in 10.0 mi Calm Calm - N/A   Clear
8:50 AM 15.8 °F - 12.2 °F 86% 29.85 in 7.0 mi Calm Calm - N/A   Clear
9:50 AM 15.8 °F - 14.0 °F 93% 29.86 in 10.0 mi Calm Calm - N/A   Clear
10:50 AM 23.0 °F - 19.4 °F 86% 29.88 in 10.0 mi Calm Calm - N/A   Clear
11:55 AM 28.4 °F 20.4 °F 23.0 °F 80% 29.84 in 10.0 mi South 8.1 mph - N/A   Clear
12:50 PM 30.2 °F 19.8 °F 23.0 °F 75% 29.82 in 10.0 mi South 13.8 mph - N/A   Clear
1:50 PM 30.2 °F 19.8 °F 23.0 °F 75% 29.82 in 10.0 mi South 13.8 mph - N/A   Clear
2:50 PM 28.4 °F 18.5 °F 24.8 °F 86% 29.80 in 10.0 mi South 11.5 mph - N/A   Mostly Cloudy
3:50 PM 28.4 °F 18.5 °F 24.8 °F 86% 29.79 in 10.0 mi South 11.5 mph - N/A   Overcast
4:50 PM 28.4 °F 18.5 °F 24.8 °F 86% 29.79 in 10.0 mi South 11.5 mph - N/A   Overcast
5:50 PM 28.4 °F 18.5 °F 26.6 °F 93% 29.79 in 10.0 mi South 11.5 mph - N/A   Overcast
6:50 PM 30.2 °F 19.8 °F 28.4 °F 93% 29.75 in 10.0 mi South 13.8 mph - N/A   Overcast
7:50 PM 32.0 °F 23.0 °F 30.2 °F 93% 29.75 in 7.0 mi South 11.5 mph - N/A   Overcast
8:55 PM 32.0 °F 21.6 °F 30.2 °F 93% 29.74 in 7.0 mi South 15.0 mph 19.6 mph N/A   Overcast
9:55 PM 33.8 °F 23.9 °F 32.0 °F 93% 29.71 in 7.0 mi South 15.0 mph - N/A   Overcast
10:37 PM 33.3 °F 22.5 °F 31.6 °F 94% 29.69 in 7.0 mi South 17.3 mph 23.0 mph N/A   Overcast
10:57 PM 33.8 °F 23.5 °F 32.0 °F 93% 29.68 in 7.0 mi South 16.1 mph - N/A   Overcast
11:16 PM 33.8 °F 23.5 °F 32.0 °F 93% 29.67 in 7.0 mi South 16.1 mph - N/A   Overcast
11:37 PM 33.8 °F 23.5 °F 32.0 °F 93% 29.67 in 5.0 mi South 16.1 mph 19.6 mph N/A   Overcast
11:57 PM 33.8 °F 23.9 °F 32.0 °F 93% 29.67 in 4.0 mi South 15.0 mph 19.6 mph N/A   Overcast